Weather History for Rutland, VT

Change the Weather History Date:

Monday, December 31, 2012

  Actual Average Record
Temperature  
Mean Temperature 20 °F -  
Max Temperature 30 °F - 57 °F (1965)
Min Temperature 10 °F - -14 °F (1963)
Degree Days  
Heating Degree Days 45    
Month to date heating degree days 1056  
Since 1 July heating degree days 2410  
Cooling Degree Days 0    
Month to date cooling degree days 0  
Year to date cooling degree days 411  
Moisture  
Dew Point 16 °F    
Average Humidity 76    
Maximum Humidity 88    
Minimum Humidity 63    
Precipitation  
Precipitation 0.00 in - 2.06 in (1948)
Month to date precipitation 1.47  
Year to date precipitation 23.32  
Sea Level Pressure  
Sea Level Pressure 29.92 in    
Wind  
Wind Speed 6 mph (WSW)    
Max Wind Speed 14 mph    
Max Gust Speed 21 mph    
Visibility 9 miles    
Events      
T = Trace of Precipitation, MM = Missing Value Source: NWS Daily Summary

Daily Weather History Graph

Daily Weather History Graph

Search for Another Location

Airport:

Trip Planner

Search our weather history database for the weather conditions in past years. The results will help you decide how hot, cold, wet, or windy it might be!

Date:

Astronomy

Dec. 31, 2012 Rise Set
Actual Time 7:24 AM EST 4:25 PM EST
Civil Twilight 6:52 AM EST 4:58 PM EST
Nautical Twilight 6:16 AM EST 5:34 PM EST
Astronomical Twilight 5:41 AM EST 6:08 PM EST
Moon 7:59 PM EST (12/31) 8:59 AM EST (12/31)
Length of Visible Light 10h 05m
Length of Day
9h 00m
Waning Gibbous, 90% of the Moon is Illuminated
Dec 31
Waning Gibbous
Jan 4
Last Quarter
Jan 11
New
Jan 18
First Quarter
Jan 26
Full

Hourly Weather History & Observations

Time (EST) Temp. Windchill Dew Point Humidity Pressure Visibility Wind Dir Wind Speed Gust Speed Precip Events Conditions
12:15 AM 10.4 °F -3.3 °F 6.8 °F 85% 30.04 in 10.0 mi NNE 10.4 mph - N/A   Overcast
12:35 AM 10.4 °F 0.8 °F 3.2 °F 73% 30.03 in 10.0 mi NNE 5.8 mph - N/A   Overcast
12:55 AM 12.2 °F 4.3 °F 6.8 °F 79% 30.04 in 10.0 mi WNW 4.6 mph - N/A   Overcast
1:15 AM 12.2 °F 4.3 °F 6.8 °F 79% 30.04 in 10.0 mi NNW 4.6 mph - N/A   Overcast
1:35 AM 14.0 °F 3.9 °F 8.6 °F 79% 30.04 in 10.0 mi North 6.9 mph - N/A   Overcast
1:55 AM 15.8 °F 10.2 °F 8.6 °F 73% 30.04 in 10.0 mi North 3.5 mph - N/A   Overcast
2:15 AM 15.8 °F 8.6 °F 8.6 °F 73% 30.03 in 10.0 mi North 4.6 mph - N/A   Overcast
3:35 AM 14.0 °F 6.5 °F 6.8 °F 73% 30.03 in 10.0 mi North 4.6 mph - N/A   Overcast
3:55 AM 14.0 °F 8.2 °F 6.8 °F 73% 30.01 in 10.0 mi WNW 3.5 mph - N/A   Overcast
4:55 AM 10.4 °F 0.8 °F 6.8 °F 85% 30.00 in 10.0 mi NNE 5.8 mph - N/A   Mostly Cloudy
5:15 AM 12.2 °F 4.3 °F 10.4 °F 92% 30.00 in 10.0 mi NNE 4.6 mph - N/A   Partly Cloudy
5:35 AM 10.4 °F 4.0 °F 8.6 °F 92% 30.00 in 10.0 mi SSW 3.5 mph - N/A   Mostly Cloudy
5:55 AM 10.4 °F - 6.8 °F 85% 29.99 in 10.0 mi Calm Calm - N/A   Overcast
6:15 AM 12.2 °F - 12.2 °F 100% 29.99 in 10.0 mi Calm Calm - N/A   Overcast
6:35 AM 10.4 °F - 10.4 °F 100% 29.99 in 10.0 mi Calm Calm - N/A   Overcast
7:55 AM 14.0 °F - 10.4 °F 86% 29.99 in 10.0 mi Calm Calm - N/A   Overcast
8:15 AM 14.0 °F - 10.4 °F 86% 29.99 in 9.0 mi Calm Calm - N/A   Overcast
8:35 AM 15.8 °F 8.6 °F 14.0 °F 93% 29.99 in 3.0 mi West 4.6 mph - N/A   Overcast
8:55 AM 21.2 °F 13.6 °F 17.6 °F 86% 29.98 in 3.0 mi WSW 5.8 mph - N/A   Overcast
9:15 AM 21.2 °F 11.7 °F 17.6 °F 86% 29.98 in 4.0 mi WSW 8.1 mph - N/A   Overcast
9:35 AM 23.0 °F 15.8 °F 19.4 °F 86% 29.98 in 10.0 mi West 5.8 mph - N/A   Overcast
9:55 AM 23.0 °F 15.8 °F 19.4 °F 86% 29.98 in 7.0 mi West 5.8 mph - N/A   Overcast
10:15 AM 23.0 °F 17.0 °F 19.4 °F 86% 29.99 in 7.0 mi West 4.6 mph - N/A   Overcast
11:15 AM 24.8 °F 14.6 °F 21.2 °F 86% 29.96 in 10.0 mi West 10.4 mph - N/A   Overcast
11:35 AM 26.6 °F 20.0 °F 23.0 °F 86% 29.94 in 10.0 mi WSW 5.8 mph - N/A   Overcast
11:55 AM 26.6 °F 19.1 °F 21.2 °F 80% 29.93 in 9.0 mi WSW 6.9 mph - N/A   Overcast
12:15 PM 26.6 °F 19.1 °F 21.2 °F 80% 29.92 in 8.0 mi SW 6.9 mph - N/A   Overcast
12:35 PM 26.6 °F 17.5 °F 21.2 °F 80% 29.91 in 8.0 mi WSW 9.2 mph - N/A   Overcast
12:55 PM 26.6 °F 16.2 °F 21.2 °F 80% 29.90 in 10.0 mi SW 11.5 mph 16.1 mph N/A   Overcast
1:35 PM 26.6 °F 16.8 °F 21.2 °F 80% 29.88 in 10.0 mi WSW 10.4 mph 18.4 mph N/A   Overcast
1:55 PM 26.6 °F 15.2 °F 21.2 °F 80% 29.87 in 10.0 mi SW 13.8 mph 17.3 mph N/A   Overcast
2:15 PM 26.6 °F 15.7 °F 23.0 °F 86% 29.87 in 10.0 mi SW 12.7 mph 19.6 mph N/A   Overcast
3:35 PM 28.4 °F 22.2 °F 23.0 °F 80% 29.85 in 10.0 mi SW 5.8 mph - N/A   Overcast
3:55 PM 28.4 °F 19.1 °F 21.2 °F 74% 29.85 in 10.0 mi SW 10.4 mph - N/A   Overcast
4:15 PM 28.4 °F 22.2 °F 21.2 °F 74% 29.85 in 10.0 mi South 5.8 mph - N/A   Overcast
4:35 PM 28.4 °F 20.4 °F 21.2 °F 74% 29.84 in 10.0 mi SSW 8.1 mph - N/A   Overcast
4:55 PM 28.4 °F - 21.2 °F 74% 29.83 in 10.0 mi Calm Calm - N/A   Overcast
5:35 PM 28.4 °F 23.3 °F 19.4 °F 69% 29.82 in 10.0 mi WSW 4.6 mph - N/A   Overcast
5:55 PM 28.4 °F 24.6 °F 19.4 °F 69% 29.82 in 10.0 mi WSW 3.5 mph - N/A   Overcast
6:15 PM 28.4 °F 22.2 °F 21.2 °F 74% 29.82 in 10.0 mi WSW 5.8 mph - N/A   Overcast
7:15 PM 28.4 °F 22.2 °F 19.4 °F 69% 29.80 in 10.0 mi SW 5.8 mph - N/A   Overcast
8:35 PM 30.2 °F 24.3 °F 19.4 °F 64% 29.77 in 10.0 mi SSW 5.8 mph - N/A   Overcast
8:55 PM 30.2 °F 22.6 °F 19.4 °F 64% 29.77 in 10.0 mi SSW 8.1 mph - N/A   Overcast
9:15 PM 30.2 °F 22.6 °F 19.4 °F 64% 29.76 in 10.0 mi South 8.1 mph - N/A   Overcast
9:35 PM 30.2 °F 20.8 °F 19.4 °F 64% 29.75 in 10.0 mi SW 11.5 mph 19.6 mph N/A   Overcast
9:55 PM 30.2 °F 22.6 °F 19.4 °F 64% 29.74 in 10.0 mi SSW 8.1 mph 20.7 mph N/A   Overcast
11:15 PM 30.2 °F 21.9 °F 23.0 °F 75% 29.72 in 10.0 mi WSW 9.2 mph - N/A   Overcast
11:35 PM 30.2 °F 19.8 °F 23.0 °F 75% 29.71 in 9.0 mi SW 13.8 mph 27.6 mph N/A   Overcast